Regional Weather Roundup
Issued by NWS Cleveland, OH

Home | Current Version | Previous Version | Graphics & Text | Print | Product List | Glossary On
Versions: 1 2 3 4 5 6 7 8 9 10 11 12 13 14 15 16 17 18 19 20 21 22 23 24 25 26 27 28 29 30 31 32 33 34 35 36 37 38 39 40 41 42 43 44 45 46 47 48 49 50
000
ASUS41 KCLE 030602
RWRCLE
OHIO REGIONAL WEATHER ROUNDUP
NATIONAL WEATHER SERVICE CLEVELAND, OH
100 AM EST TUE MAR 03 2015

NOTE: "FAIR" INDICATES FEW OR NO CLOUDS BELOW 12,000 FEET WITH NO
SIGNIFICANT WEATHER AND/OR OBSTRUCTIONS TO VISIBILITY.

OHZ001>008-015>018-024>027-034-035-043-044-030700-
   NORTHWEST OHIO

CITY           SKY/WX    TMP DP  RH WIND       PRES   REMARKS
DEFIANCE       CLOUDY    22  14  71 S3        30.33F
FINDLAY        CLOUDY    20  12  71 SE6       30.31F WCI  12
TOLEDO EXPRESS CLOUDY    21  13  71 S3        30.33F
TOLEDO EXEC    CLOUDY    22  14  71 S5        30.35F WCI  16
LIMA           CLOUDY    22  12  65 SE7       30.29F WCI  13
$$

OHZ009>014-019>023-028>033-038-089-030700-
   NORTHEAST OHIO

CITY           SKY/WX    TMP DP  RH WIND       PRES   REMARKS
CLE-HOPKINS    CLOUDY    20  11  68 SE5       30.37F WCI  13
CLE-LAKEFRONT  FAIR      23  12  62 SE8       30.35F WCI  14
CUY CO. ARPT   NOT AVBL
LORAIN-ELYRIA  FAIR      18  10  71 S5        30.36F WCI  11
ASHTABULA      FAIR       9   3  77 CALM      30.37F
AKRON-CANTON   CLOUDY    21  11  65 SE8       30.32F WCI  11
WOOSTER        CLOUDY    11   7  84 CALM      30.34F
MANSFIELD      CLOUDY    20  11  68 SE7       30.31F WCI  11
YOUNGSTOWN     CLOUDY    17   8  67 SE6       30.35F WCI   9
$$

OHZ042-051>053-060>062-070>072-077>081-030700-
  SOUTHWEST OHIO

CITY           SKY/WX    TMP DP  RH WIND       PRES   REMARKS
CINC-COVINGTON CLOUDY    27  15  61 E7        30.25F WCI  19
CINC-LUNKEN    FAIR      26  15  63 NE6       30.30F WCI  19
HAMILTON       FAIR      25  16  68 E6        30.29F WCI  18
DAYTON         MOCLDY    23  14  68 E7        30.28F WCI  15
WRIGHT-PAT AFB NOT AVBL
DAYTON GENERAL FAIR      24  14  65 E8        30.26F WCI  15
WILMINGTON     FAIR      22  12  65 E8        30.26F WCI  12
$$

OHZ036-037-039>041-045>050-054>059-063>069-073>076-082>088-030700-
  CENTRAL AND SOUTHEAST OHIO

CITY           SKY/WX    TMP DP  RH WIND       PRES   REMARKS
COLUMBUS       CLOUDY    21  12  68 E3        30.32F
OSU AIRPORT    CLOUDY    20  13  74 NE6       30.31F WCI  12
BOLTON FIELD   NOT AVBL
RICKENBACK AFB NOT AVBL
NEWARK         CLOUDY    16  11  80 CALM      30.33F
MARION         CLOUDY    17  11  77 SE7       30.31F WCI   8
LANCASTER      FAIR      14  11  87 CALM      30.33F FOG
ZANESVILLE     MOCLDY    18  12  77 CALM      30.35F
NEW PHILLY     MOCLDY    16   9  74 CALM      30.37F
$$


USA.gov is the U.S. government's official web portal to all federal, state and local government web resources and services.